Burnet, TX

7:52 AM CDT on August 24, 2016 (GMT -0500)
Burnet Municipal-Craddock

Weather History for KBMQ - February, 2012

Change the Weather History Date:

Wednesday, February 8, 2012

  Actual Average Record
Temperature  
Mean Temperature 44 °F -  
Max Temperature 52 °F 58 °F 81 °F (1999)
Min Temperature 37 °F 39 °F 30 °F (2003)
Degree Days  
Heating Degree Days 20    
Moisture  
Dew Point 36 °F    
Average Humidity 71    
Maximum Humidity 87    
Minimum Humidity 58    
Precipitation  
Precipitation 0.00 in - - ()
Sea Level Pressure  
Sea Level Pressure 30.40 in    
Wind  
Wind Speed 8 mph (NNE)    
Max Wind Speed 10 mph    
Max Gust Speed -    
Visibility 8 miles    
Events      
Averages and records for this station are not official NWS values.
T = Trace of Precipitation, MM = Missing Value Source: NWS Daily Summary

Daily Weather History Graph

Daily Weather History Graph

Search for Another Location

Airport or City:

Trip Planner

Search our weather history database for the weather conditions in past years. The results will help you decide how hot, cold, wet, or windy it might be!

Date:

Astronomy

Feb. 08, 2012 Rise Set
Actual Time 7:19 AM CST 6:14 PM CST
Civil Twilight 6:54 AM CST 6:39 PM CST
Nautical Twilight 6:26 AM CST 7:08 PM CST
Astronomical Twilight 5:58 AM CST 7:36 PM CST
Moon 7:26 PM CST (2/8) 7:31 AM CST (2/8)
Length of Visible Light 11h 44m
Length of Day
10h 54m
Full, 99% of the Moon is Illuminated
Feb 8
Full
Feb 14
Last Quarter
Feb 21
New
Feb 29
First Quarter
Mar 8
Full

Hourly Weather History & Observations

Time (CST) Temp. Windchill Dew Point Humidity Pressure Visibility Wind Dir Wind Speed Gust Speed Precip Events Conditions
12:53 AM 46.9 °F - 36.0 °F 66% 30.38 in 10.0 mi North 10.4 mph - N/A   Clear
1:53 AM 45.0 °F 39.7 °F 35.1 °F 68% 30.38 in 10.0 mi NNW 10.4 mph - N/A   Clear
2:53 AM 42.1 °F 36.6 °F 34.0 °F 73% 30.38 in 10.0 mi NNW 9.2 mph - N/A   Clear
3:53 AM 39.9 °F 33.9 °F 33.1 °F 77% 30.39 in 10.0 mi NNW 9.2 mph - N/A   Clear
4:53 AM 39.0 °F 32.3 °F 33.1 °F 79% 30.39 in 10.0 mi NNW 10.4 mph - N/A   Unknown
5:53 AM 37.9 °F 31.5 °F 33.1 °F 83% 30.43 in 10.0 mi NNW 9.2 mph - N/A   Clear
6:53 AM 37.9 °F 32.7 °F 33.1 °F 83% 30.45 in 9.0 mi North 6.9 mph - N/A   Scattered Clouds
7:04 AM 37.4 °F 31.4 °F 33.8 °F 87% 30.45 in 9.0 mi North 8.1 mph - N/A   Mostly Cloudy
7:53 AM 39.9 °F 35.8 °F 34.0 °F 79% 30.48 in 7.0 mi Variable 5.8 mph - N/A   Overcast
8:53 AM 41.0 °F 36.4 °F 35.1 °F 79% 30.51 in 7.0 mi NNW 6.9 mph - N/A   Overcast
9:53 AM 43.0 °F 38.8 °F 35.1 °F 74% 30.49 in 7.0 mi Variable 6.9 mph 19.6 mph N/A   Overcast
10:53 AM 44.1 °F 39.5 °F 35.1 °F 71% 30.48 in 7.0 mi North 8.1 mph - N/A   Overcast
11:40 AM 46.4 °F 42.9 °F 35.6 °F 66% 30.48 in 6.0 mi NNE 6.9 mph - N/A   Haze
11:53 AM 45.0 °F 41.8 °F 36.0 °F 71% 30.47 in 6.0 mi Variable 5.8 mph - N/A   Haze
12:53 PM 46.9 °F - 36.0 °F 66% 30.44 in 7.0 mi Variable 4.6 mph - N/A   Overcast
1:43 PM 48.2 °F - 37.4 °F 66% 30.41 in 7.0 mi NNE 4.6 mph - N/A   Overcast
1:53 PM 50.0 °F - 37.0 °F 61% 30.40 in 7.0 mi North 8.1 mph - N/A   Overcast
2:32 PM 51.8 °F - 37.4 °F 58% 30.37 in 8.0 mi NNW 6.9 mph - N/A   Scattered Clouds
2:53 PM 52.0 °F - 37.9 °F 59% 30.37 in 8.0 mi Variable 4.6 mph - N/A   Partly Cloudy
3:53 PM 50.0 °F - 37.0 °F 61% 30.36 in 8.0 mi Variable 3.5 mph - N/A   Clear
4:53 PM 51.1 °F - 37.0 °F 59% 30.35 in 8.0 mi NE 6.9 mph - N/A   Clear
5:53 PM 48.9 °F - 36.0 °F 61% 30.35 in 8.0 mi NNE 5.8 mph - N/A   Clear
6:53 PM 46.0 °F 43.9 °F 37.0 °F 71% 30.35 in 9.0 mi NE 4.6 mph - N/A   Clear
7:53 PM 44.1 °F 40.8 °F 36.0 °F 73% 30.35 in 8.0 mi NE 5.8 mph - N/A   Clear
8:53 PM 43.0 °F 41.3 °F 36.0 °F 76% 30.35 in 8.0 mi NNE 3.5 mph - N/A   Clear
9:53 PM 41.0 °F 38.0 °F 35.1 °F 79% 30.36 in 7.0 mi ENE 4.6 mph - N/A   Clear
10:53 PM 41.0 °F 38.0 °F 35.1 °F 79% 30.37 in 6.0 mi ENE 4.6 mph - N/A   Haze
11:53 PM 39.9 °F 36.7 °F 35.1 °F 83% 30.36 in 6.0 mi NE 4.6 mph - N/A   Haze